Location: Newark
(35.2672°N, 80.7344°W)
Time: 18:35:56
(UTC+00:00)

SR - Pass Details

Date: 31 January 2020
Orbit: 575 x 881 km, 66.7° (Epoch: 17 February)

Event Time Altitude Azimuth Distance (km) Brightness Sun altitude
Rises 00:46:54 0° 173° (S) 3,352 ? -24.2°
Reaches altitude 10° 00:49:39 10° 162° (SSE) 2,460 ? -24.8°
Enters shadow 00:49:43 10° 161° (SSE) 2,436 ? -24.8°
